Weather History for Pompano Beach, FL

Change the Weather History Date:

Wednesday, June 26, 2013

  Actual Average Record
Temperature  
Mean Temperature 83 °F -  
Max Temperature 88 °F 90 °F 96 °F (1970)
Min Temperature 78 °F 73 °F 64 °F (1985)
Cooling Degree Days 18    
Growing Degree Days 33 (Base 50)    
Moisture  
Dew Point 76 °F    
Average Humidity 79    
Maximum Humidity 96    
Minimum Humidity 65    
Precipitation  
Precipitation 0.17 in - - ()
Sea Level Pressure  
Sea Level Pressure 30.06 in    
Wind  
Wind Speed 10 mph (SE)    
Max Wind Speed 14 mph    
Max Gust Speed 24 mph    
Visibility 9 miles    
Events Rain , Thunderstorm    
Averages and records for this station are not official NWS values.
T = Trace of Precipitation, MM = Missing Value Source: NWS Daily Summary

Daily Weather History Graph

Daily Weather History Graph

Search for Another Location

Airport:

Trip Planner

Search our weather history database for the weather conditions in past years. The results will help you decide how hot, cold, wet, or windy it might be!

Date:

Astronomy

Jun. 26, 2013 Rise Set
Actual Time 6:30 AM EDT 8:16 PM EDT
Civil Twilight 6:03 AM EDT 8:42 PM EDT
Nautical Twilight 5:32 AM EDT 9:14 PM EDT
Astronomical Twilight 4:59 AM EDT 9:47 PM EDT
Moon 11:04 PM EDT (6/26) 9:58 AM EDT (6/26)
Length of Visible Light 14h 38m
Length of Day
13h 46m
Waning Gibbous, 85% of the Moon is Illuminated
Jun 26
Waning Gibbous
Jun 30
Last Quarter
Jul 8
New
Jul 15
First Quarter
Jul 22
Full

Hourly Weather History & Observations

Time (EDT) Temp. Heat Index Dew Point Humidity Pressure Visibility Wind Dir Wind Speed Gust Speed Precip Events Conditions
12:53 AM 82.0 °F 90.2 °F 77.0 °F 85% 30.08 in 10.0 mi ESE 8.1 mph - N/A   Partly Cloudy
1:53 AM 82.9 °F 90.2 °F 75.0 °F 77% 30.06 in 10.0 mi ESE 11.5 mph - N/A   Partly Cloudy
2:53 AM 82.9 °F 90.8 °F 75.9 °F 79% 30.04 in 10.0 mi SE 10.4 mph - N/A   Partly Cloudy
3:53 AM 82.0 °F 89.4 °F 75.9 °F 82% 30.02 in 10.0 mi ESE 9.2 mph - N/A   Scattered Clouds
4:53 AM 82.0 °F 88.6 °F 75.0 °F 79% 30.03 in 10.0 mi SE 11.5 mph - N/A   Clear
5:53 AM 81.0 °F 86.2 °F 73.9 °F 79% 30.04 in 10.0 mi SSE 5.8 mph - N/A   Scattered Clouds
6:10 AM 80.6 °F 86.2 °F 75.2 °F 84% 30.05 in 9.0 mi ESE 13.8 mph 24.2 mph 0.01 in Rain Light Rain
6:30 AM 78.8 °F - 75.2 °F 89% 30.06 in 9.0 mi SSW 10.4 mph - 0.03 in Rain , Thunderstorm Light Thunderstorms and Rain
6:43 AM 78.8 °F - 77.0 °F 94% 30.07 in 3.0 mi South 11.5 mph - 0.06 in Rain , Thunderstorm Thunderstorms and Rain
6:53 AM 78.1 °F - 77.0 °F 96% 30.06 in 4.0 mi South 8.1 mph - 0.09 in Rain , Thunderstorm Light Thunderstorms and Rain
7:02 AM 78.8 °F - 77.0 °F 94% 30.06 in 2.5 mi SE 13.8 mph 19.6 mph 0.06 in Rain Heavy Rain
7:16 AM 80.6 °F 88.1 °F 78.8 °F 94% 30.05 in 5.0 mi SSE 6.9 mph - 0.08 in Rain Light Rain
7:53 AM 81.0 °F 87.9 °F 77.0 °F 88% 30.06 in 10.0 mi SE 8.1 mph - 0.08 in   Partly Cloudy
8:53 AM 82.0 °F 89.4 °F 75.9 °F 82% 30.07 in 10.0 mi ESE 11.5 mph - N/A   Partly Cloudy
9:53 AM 84.9 °F 94.1 °F 75.9 °F 74% 30.07 in 10.0 mi ESE 11.5 mph - N/A   Partly Cloudy
10:53 AM 86.0 °F 95.1 °F 75.0 °F 70% 30.08 in 10.0 mi SSE 11.5 mph - N/A   Scattered Clouds
11:53 AM 86.0 °F 95.1 °F 75.0 °F 70% 30.08 in 10.0 mi SE 13.8 mph - N/A   Partly Cloudy
12:53 PM 84.9 °F 94.1 °F 75.9 °F 74% 30.10 in 10.0 mi SE 11.5 mph - N/A   Scattered Clouds
1:53 PM 87.1 °F 95.4 °F 73.9 °F 65% 30.09 in 10.0 mi SE 12.7 mph - N/A   Scattered Clouds
2:53 PM 88.0 °F 97.5 °F 75.0 °F 65% 30.06 in 10.0 mi ESE 11.5 mph - N/A   Scattered Clouds
3:53 PM 87.1 °F 96.3 °F 75.0 °F 67% 30.06 in 10.0 mi ESE 12.7 mph - N/A   Clear
4:53 PM 86.0 °F 96.0 °F 75.9 °F 72% 30.05 in 10.0 mi East 12.7 mph - N/A   Partly Cloudy
5:53 PM 86.0 °F 95.1 °F 75.0 °F 70% 30.05 in 10.0 mi SE 9.2 mph - N/A   Scattered Clouds
6:53 PM 84.0 °F 91.2 °F 73.9 °F 72% 30.03 in 10.0 mi ESE 10.4 mph - N/A   Partly Cloudy
7:53 PM 82.9 °F 90.2 °F 75.0 °F 77% 30.04 in 10.0 mi ESE 9.2 mph - N/A   Partly Cloudy
8:53 PM 82.9 °F 89.4 °F 73.9 °F 74% 30.07 in 10.0 mi SSE 8.1 mph - N/A   Clear
9:53 PM 82.9 °F 90.2 °F 75.0 °F 77% 30.06 in 10.0 mi SE 8.1 mph - N/A   Clear
10:53 PM 82.9 °F 90.8 °F 75.9 °F 79% 30.06 in 10.0 mi ESE 8.1 mph - N/A   Partly Cloudy
11:53 PM 82.9 °F 90.8 °F 75.9 °F 79% 30.05 in 10.0 mi SE 9.2 mph - N/A   Scattered Clouds